Flag Weather past 2 weeks in Vista, California, U.S.A.

Now
74 °F

Sunny.


Feels Like: 74 °F
Forecast: 50 / 78 °F
Wind: 7 mph from North

Location: McClellan-Palomar Airport

Current Time: Nov 25, 2014 at 2:26:33 PM

Latest Report: Nov 25, 2014 at 1:53 PM


Visibility: 10 mi

Pressure: 30.25 "Hg

Humidity: 10%

Dew point: 14 °F

Location of VistaLocation

Historic Weather in Vista — Graph

°F

Vista temperature yesterday

Maximum temperature yesterday: 74 °F (at 10:53 AM)
Minimum temperature yesterday: 52 °F (at 5:53 AM)
Average temperature yesterday: 63 °F

Past Weeks' High & Low Weather Summary

 TemperatureHumidityPressure
High77 °F (Nov 16, 12:53 PM)93% (Nov 21, 2:53 AM)30.35 "Hg (Nov 21, 2:53 AM)
Low50 °F (Nov 18, 5:53 AM)8% (Nov 16, 5:53 PM)29.84 "Hg (Nov 10, 1:53 PM)
Average62 °F58%30.05 "Hg
* Reported Nov 10 12:53 PM — Nov 25 12:53 PM, Vista, Weather by CustomWeather, © 2014

Note: Actual official high and low records may vary slightly from our data, if they occured in-between our weather recording intervals... More about our weather records

Advertising

Vista weather history for previous 24 hours

 ConditionsComfort  
Time TempWeatherWind HumidityBarometerVisibility
12:53 PM
Nov 25
72 °FSunny.6 mph29%30.27 "Hg10 mi
11:53 AM76 °FSunny.9 mph8%30.29 "Hg10 mi
10:53 AM75 °FSunny.5 mph8%30.32 "Hg10 mi
9:53 AM74 °FSunny.3 mph11%30.35 "Hg10 mi
8:53 AM68 °FSunny.3 mph17%30.35 "Hg10 mi
7:53 AM60 °FSunny.3 mph23%30.34 "Hg10 mi
6:53 AM52 °FSunny.3 mph28%30.33 "Hg10 mi
5:53 AM56 °FClear.3 mph20%30.32 "Hg10 mi
4:53 AM58 °FClear.No wind17%30.30 "Hg10 mi
3:53 AM55 °FClear.5 mph23%30.29 "Hg10 mi
2:53 AM57 °FClear.3 mph21%30.30 "Hg10 mi
1:53 AM55 °FClear.No wind25%30.30 "Hg10 mi
12:53 AM56 °FClear.No wind24%30.30 "Hg10 mi
11:53 PM
Nov 24
58 °FClear.3 mph23%30.29 "Hg10 mi
10:53 PM61 °FClear.5 mph19%30.28 "Hg10 mi
9:53 PM63 °FClear.7 mph17%30.27 "Hg10 mi
8:53 PM60 °FClear.5 mph24%30.25 "Hg10 mi
7:53 PM64 °FClear.3 mph21%30.23 "Hg10 mi
6:53 PM63 °FClear.3 mph35%30.22 "Hg10 mi
5:53 PM64 °FClear.No wind41%30.21 "Hg10 mi
4:53 PM67 °FClear.No wind37%30.19 "Hg10 mi
3:53 PM70 °FSunny.5 mph35%30.17 "Hg10 mi
2:53 PM69 °FSunny.7 mph51%30.16 "Hg10 mi
Weather by CustomWeather, © 2014

See weather overviewHow to use our weather pages